FW2347 Weather Reports


Display with metric or nautical units.
time (UTC)temp
F
wind
direction
speed
MPH
gust
MPH
rain 1hr
in
rain 24hr
in
rain mn
in
humidity
%
barometer
mb
20260505153112 64 249 0.0 0.0 0.00 0.25 0.01 67 1008.1
20260505151535 64 263 0.0 0.0 0.00 0.25 0.01 67 1008.1
20260505130104 62 260 0.0 0.0 0.00 0.25 0.01 72 1009.3
20260505124609 63 257 0.0 0.0 0.00 0.25 0.01 71 1009.3
20260505123005 63 260 0.0 0.0 0.00 0.25 0.01 71 1009.4
20260505121513 63 271 0.0 0.0 0.00 0.25 0.01 68 1009.7
20260505120053 61 277 0.0 0.0 0.00 0.25 0.01 62 1010.0
20260505114610 60 281 0.0 0.0 0.00 0.25 0.01 53 1010.0
20260505113017 58 263 0.0 0.0 0.00 0.25 0.01 52 1010.3
20260505111531 58 253 0.0 0.0 0.00 0.25 0.01 55 1010.4
20260505101550 58 233 0.0 0.0 0.00 0.25 0.01 55 1010.7
20260505100110 57 267 0.0 0.0 0.00 0.25 0.01 47 1010.8
20260505094611 56 250 0.0 0.0 0.00 0.25 0.01 46 1010.9
20260505093027 56 360 0.0 0.0 0.00 0.25 0.01 38 1010.9
20260505091544 55 233 0.0 0.0 0.00 0.25 0.01 35 1011.0
20260505090044 55 265 0.0 0.0 0.00 0.25 0.01 34 1011.0
20260505084603 56 161 0.0 0.0 0.00 0.25 0.01 35 1011.0
20260505083110 55 168 0.0 0.0 0.00 0.25 0.01 26 1011.0
20260505081602 53 360 0.0 0.0 0.00 0.25 0.01 19 1011.1
20260505080107 53 44 0.0 0.0 0.00 0.25 0.01 15 1011.2
20260505074502 52 55 0.0 0.0 0.00 0.25 0.01 10 1011.4
20260505073027 51 55 0.0 0.0 0.00 0.25 0.01 5 1011.6
20260505071604 51 59 0.0 0.0 0.00 0.25 0.01 3 1011.3
20260505070019 50 61 0.0 0.0 0.00 0.25 0.01 100 1011.5
20260505064533 49 58 0.0 0.0 0.00 0.25 0.01 100 1011.6
20260505063041 49 58 0.0 0.0 0.00 0.25 0.01 1011.7
20260505061609 49 58 0.0 0.0 0.00 0.25 0.01 100 1011.6
20260505060036 49 68 0.0 0.0 0.00 0.25 0.01 100 1011.7
20260505054535 48 69 0.0 0.0 0.00 0.25 0.01 100 1011.5
20260505053051 48 68 0.0 0.0 0.00 0.25 0.01 100 1011.2
20260505051559 48 68 0.0 0.0 0.00 0.25 0.01 100 1011.4
20260505050129 47 69 0.0 0.0 0.00 0.25 0.01 1 1011.4
20260505041546 47 68 0.0 0.0 0.00 0.25 0.01 1 1010.9
20260505040051 46 68 0.0 0.0 0.00 0.25 0.01 2 1010.9
20260505034600 46 68 0.0 0.0 0.00 0.25 0.01 2 1011.0
20260505033020 45 68 0.0 0.0 0.00 0.25 0.01 3 1011.1
20260505031527 44 68 0.0 0.0 0.00 0.25 0.01 4 1011.2
20260505030045 44 68 0.0 0.0 0.00 0.25 0.01 4 1011.2
20260505024557 44 68 0.0 0.0 0.00 0.25 0.01 4 1011.0
20260505023009 43 68 0.0 0.0 0.00 0.25 0.01 5 1011.2
20260505021530 43 68 0.0 0.0 0.01 0.25 0.01 5 1011.2
20260505020105 43 68 0.0 0.0 0.01 0.25 0.01 5 1011.1
20260505014501 44 68 0.0 0.0 0.01 0.25 0.01 5 1011.1
20260505013019 44 158 0.0 0.0 0.01 0.25 0.01 6 1011.2
20260505011521 45 157 0.0 0.0 0.00 0.24 0.00 6 1011.2
20260505010020 44 158 0.0 0.0 0.00 0.24 0.00 6 1011.2
20260505004534 45 158 0.0 0.0 0.00 0.24 0.00 6 1011.2
20260505003035 45 158 0.0 0.0 0.00 0.24 0.00 6 1011.0
20260505001609 45 158 0.0 0.0 0.00 0.24 0.00 7 1011.0
20260505000140 45 159 0.0 0.0 0.00 0.24 0.00 7 1011.1
20260504234517 45 159 0.0 0.0 0.00 0.24 0.00 7 1011.2
20260504233031 46 159 0.0 0.0 0.00 0.24 0.00 8 1011.3
20260504231536 46 159 0.0 0.0 0.00 0.24 0.00 8 1011.2
20260504230038 46 159 0.0 0.0 0.00 0.24 0.00 8 1011.0
20260504224543 47 159 0.0 0.0 0.00 0.24 0.00 8 1011.1